This is the latest recevied weather packets stored in our database for station/object N3DOU-1. If no packets are shown the sender has not sent any weather packets the latest 10 day(s).
| Time | Temp. | Humidity | Pressure | Rain* | Wind** | Luminosity | Snow |
|---|---|---|---|---|---|---|---|
| 1777308086 | 18.33° C | 60% | 1024.3 hPa | 0 mm | - | - | - |
| 1777307184 | 18.33° C | 59% | 1024.3 hPa | 0 mm | - | - | - |
| 1777306285 | 18.33° C | 61% | 1024.4 hPa | 0 mm | - | - | - |
| 1777305385 | 17.78° C | 61% | 1024.5 hPa | 0 mm | - | - | - |
| 1777304483 | 17.78° C | 59% | 1024.5 hPa | 0 mm | - | - | - |
| 1777303585 | 17.22° C | 59% | 1024.7 hPa | 0 mm | - | - | - |
| 1777302684 | 16.67° C | 64% | 1024.8 hPa | 0 mm | - | - | - |
| 1777301784 | 16.11° C | 64% | 1024.9 hPa | 0 mm | - | - | - |
| 1777300884 | 16.11° C | 65% | 1024.9 hPa | 0 mm | - | - | - |
| 1777299984 | 15.56° C | 72% | 1025 hPa | 0 mm | - | - | - |
| 1777299084 | 15° C | 72% | 1024.9 hPa | 0 mm | - | - | - |
| 1777298184 | 15° C | 73% | 1024.9 hPa | 0 mm | - | - | - |
| 1777297286 | 13.89° C | 73% | 1024.8 hPa | 0 mm | - | - | - |
| 1777296384 | 13.33° C | 72% | 1024.8 hPa | 0 mm | - | - | - |
| 1777295484 | 12.78° C | 75% | 1024.6 hPa | 0 mm | - | - | - |
| 1777294584 | 11.67° C | 77% | 1024.6 hPa | 0 mm | - | - | - |
| 1777293685 | 11.11° C | 83% | 1024.5 hPa | 0 mm | - | - | - |
| 1777291884 | 10° C | 94% | 1024.1 hPa | 0 mm | - | - | - |
| 1777290984 | 8.33° C | 93% | 1024 hPa | 0 mm | - | - | - |
| 1777290084 | 7.22° C | 92% | 1023.8 hPa | 0 mm | - | - | - |
| 1777289184 | 6.11° C | 92% | 1023.7 hPa | 0 mm | - | - | - |
| 1777288286 | 5° C | 91% | 1023.4 hPa | 0 mm | - | - | - |
| 1777287451 | 5° C | 90% | 1023.3 hPa | 0 mm | - | - | - |
| 1777287385 | 5° C | 90% | 1023.3 hPa | 0 mm | - | - | - |
| 1777286485 | 5° C | 90% | 1023.2 hPa | 0 mm | - | - | - |
* Rain latest hour (hover to see other rain measurements)
** Current wind speed in m/s (hover to see current wind gust speed)